Regional Weather Roundup
Issued by NWS Green Bay, WI

Home | Current Version | Previous Version | Graphics & Text | Print | Product List | Glossary Off
Versions: 1 2 3 4 5 6 7 8 9 10 11 12 13 14 15 16 17 18 19 20 21 22 23 24 25 26 27 28 29 30 31 32 33 34 35 36 37 38 39 40 41 42 43 44 45 46 47 48 49 50

000
ASUS43 KGRB 301310
RWRGRB

NORTH-CENTRAL AND NORTHEAST WISCONSIN REGIONAL WEATHER ROUNDUP
NATIONAL WEATHER SERVICE GREEN BAY WI
800 AM CDT MON MAR 30 2015

WIZ005-009-010>012-018-019-301400-
NORTH CENTRAL WISCONSIN

CITY           SKY/WX    TMP DP  RH WIND       PRES   REMARKS
IRONWOOD       SUNNY     32  27  80 W9        29.88R
MANITOWISH WTR SUNNY     31  26  79 W7        29.88S
ARBOR VITAE    SUNNY     34  27  75 NW7       29.88S
EAGLE RIVER    SUNNY     34  25  69 NW8       29.86R
LAND O LAKES   SUNNY     34  26  74 W5        29.87R
RHINELANDER    SUNNY     34  26  72 W9        29.89R
PHILLIPS       MOSUNNY   32  26  77 SW3       29.91R
ANTIGO         SUNNY     34  27  76 W10       29.90R
TOMAHAWK       SUNNY     35  26  69 W9        29.91S
MERRILL        SUNNY     34  28  77 W8        29.92R
$$

WIZ013-073-301400-
NORTHEAST WISCONSIN

CITY           SKY/WX    TMP DP  RH WIND       PRES   REMARKS
IRON MOUNTAIN  SUNNY     37  26  64 NW15      29.82R
MARINETTE      SUNNY     37  27  65 W9        29.85R
OCONTO         SUNNY     37  29  72 W12       29.88R
$$

WIZ017-030-035>037-045-301400-
CENTRAL WISCONSIN

CITY           SKY/WX    TMP DP  RH WIND       PRES   REMARKS
MEDFORD        SUNNY     35  27  73 W8        29.93R
WAUSAU         SUNNY     36  27  69 W8        29.92R
MOSINEE        SUNNY     36  28  75 W8        29.94
MARSHFIELD     SUNNY     36  26  67 W7        29.95R
WISC RAPIDS    SUNNY     35  25  66 W6        29.97R
STEVENS POINT  SUNNY     35  25  69 W6        29.95R
WAUPACA        SUNNY     40  27  60 W10       29.94R
SHAWANO        SUNNY     39  28  64 W10       29.90R
CLINTONVILLE   SUNNY     36  28  75 W10       29.91R
$$

WIZ038-039-048-051-301400-
FOX VALLEY

CITY           SKY/WX    TMP DP  RH WIND       PRES   REMARKS
NWS GREEN BAY  SUNNY     38  28  67 W14       29.91R
APPLETON       MOSUNNY   34  27  75 W10       29.92R
OSHKOSH        SUNNY     38  27  64 W8        29.94R
FOND DU LAC    SUNNY     36  27  69 SW8       29.95R
$$

WIZ022-050-052-301400-
EAST CENTRAL WISCONSIN

CITY           SKY/WX    TMP DP  RH WIND       PRES   REMARKS
STURGEON BAY   SUNNY     37  27  65 W12G18    29.89R
MANITOWOC      SUNNY     39  29  67 W15       29.91R
SHEBOYGAN      SUNNY     40  27  59 W15       29.93R
$$

LMZ563-521-522-541>543-301400-
LAKESHORE

STATION/POSITION TIME  TEMP    WIND        PRES    VSBY  WAVE
                       AIR SEA DIR/SP/G                  HT/PER
                 (UTC) (F)     (DEG/KT/KT) (MB)    (MI)  (FT/S)
SHEBOYGAN LKSHOR 1300   41     270/ 12/ 15 1014.1R
KEWAUNEE LKSHORE 1300   39     280/  9/ 15 1011.0R
TWO RIVERS CG    1200   37                 1012.4      6   1
NORTHPORT PIER   1300   39     280/  9/ 18 1010.5R
SISTER BAY LKSHO 1300   39     300/ 15/ 17   N/A
STURGEON BAY CG  1200   36     250/ 10     1010.4      6   1
CHAMBERS ISLAND  1300   36     240/  7/ 15 1010.8R
MENOMINEE LKSHOR 1300   37     260/  9     1011.6R
$$



USA.gov is the U.S. government's official web portal to all federal, state and local government web resources and services.